Location: *
(33.8649°S, 62.1526°E)
Time: 12:11:42
(UTC+00:00)

CZ-4 R/B - Pass Details

Date: 17 January 2021
Orbit: 531 x 599 km, 97.7° (Epoch: 02 March)

Event Time Altitude Azimuth Distance (km) Brightness Sun altitude
Rises 15:51:05 0° 180° (S) 2,859 5.5 -9.3°
Reaches altitude 10° 15:53:26 10° 190° (S) 1,956 4.8 -9.7°
Maximum altitude 15:57:12 32° 252° (WSW) 1,056 3.6 -10.3°
Drops below altitude 10° 16:00:57 10° 315° (NW) 1,945 4.3 -11.0°
Sets 16:03:17 0° 325° (NW) 2,839 5.0 -11.4°
